Погода в Новониколаевке

Украина / Днепропетровская область     48°18′29″N   34°52′02″E
темп.,
°C
ветер,
м/с
пор.,
м/с
влажн.,
%
обл.,
%
осадки,
мм/ч
давл.,
гПа
погр.,
м
6 мая, чт
чт600:00+9ю31064100 0.0 1014231
03:00+8ю4963100 0.0 1014178
06:00+8ююв486699 0.0 1013172
09:00+13ю6964100 0.0 1012667
12:00+17ю6747100 0.0 10121400
15:00+19юз55405 0.0 10111899
18:00+17зсз5558100 0.0 1011514
21:00+10сз4887100 0.3 1013244
7 мая, пт
пт700:00+10с4688100 0.0 1014299
03:00+9с3592100 0.0 1015156
06:00+8с3691100 0.0 1016172
09:00+13всв2362100 0.0 1017522
12:00+16вюв3244100 0.0 10161279
15:00+19ююв343862 0.0 10151657
18:00+18ю464799 0.0 1013649
21:00+15ююв4762100 0.0 1013114
8 мая, сб
сб800:00+13ю51273100 0.0 1013363
03:00+12ю51181100 1.3 1012339
06:00+12ю61386100 0.1 1011374
09:00+16ююз81271100 0.2 1010784
12:00+14ююз61190100 0.9 1010675
15:00+10ссз71093100 10.9 1013644
18:00+8ссз61090100 2.1 1015816
21:00+8с3988100 4.8 1016707
9 мая, вс
вс900:00+8ссз3983100 0.4 1016521
03:00+7с61382100 0.5 1017558
06:00+6ссз61281100 0.0 1018623
09:00+9ссз81266100 0.0 10201092
12:00+12ссз8115087 0.0 10212075
15:00+13сз8114889 0.0 10222363
18:00+13сз710525 0.1 10231933
21:00+8ссз47695 0.2 1025109
10 мая, пн
пн1000:00+6сз46720 0.0 1027104
03:00+5ссз47750 0.0 1027110
06:00+5ссз48790 0.0 1028170
09:00+11ссз68560 0.0 1027668
12:00+14с79415 0.0 10261859
15:00+16с810385 0.0 10241980
18:00+15с710506 0.0 10231831
21:00+11ссз61360100 0.0 1022448